Location: Dimmb�l�
(14.6452°N, 3.2001°W)
Time: 18:33:28
(UTC+00:00)

Daily predictions for brighter satellites

Satellite Brightness Start Highest point End
(mag) Time Altitude Azimuth Time Altitude Azimuth Time Altitude Azimuth
FengYun 1-2 T 4.3 18:34:07 10° SSE 18:39:45 76° ENE 18:45:22 10° N
Cosmos 1777 Rocket 4.5 18:34:57 10° N 18:39:49 39° ENE 18:44:39 10° SE
YAOGAN 1 3.1 18:40:28 10° SE 18:44:27 37° ENE 18:48:25 10° N
Lacrosse 5 3.2 18:42:50 10° SW 18:47:38 42° WNW 18:52:25 10° NNE
Abrixas rocket 3.5 18:44:58 10° WNW 18:47:43 37° SW 18:50:28 10° SSE
BREEZE-M DEB (TANK) 4.3 18:40:27 10° NNW 18:49:50 30° NNE 18:53:10 11° E
SL-27 R/B 2.3 18:48:18 10° N 18:51:33 59° ENE 18:54:49 10° SSE
Cosmos 192 4.3 18:47:17 10° S 18:52:12 85° ESE 18:57:06 10° NNE
GPS 2-15 Rocket1 4.4 18:49:00 10° W 18:53:17 36° SSW 18:57:35 10° SE
Ariane H10+ 2.5 18:53:29 10° SW 18:54:49 13° S 18:55:55 10° SSE
Cosmos 1933 Rocket 4.0 18:51:20 10° SSW 18:55:43 67° W 19:00:05 10° N
Cosmos 1464 Rocket 4.1 18:49:51 10° SSE 18:55:58 54° E 19:02:08 10° NNE
Meteor 1-14 Rocket 4.4 18:51:47 10° SSE 18:57:03 46° E 19:02:18 10° NNE
Ariane Rocket 4.4 18:55:54 10° ESE 18:59:06 17° ENE 19:02:19 10° NNE
Cosmos 1939 Rocket 2.9 19:01:16 10° SSE 19:05:18 62° ENE 19:09:23 10° N
Meteor 1-27 Rocket 3.9 19:00:25 10° N 19:06:03 79° W 19:11:49 10° S
Cosmos 540 Rocket 3.9 19:04:58 10° SSE 19:09:39 37° E 19:14:19 10° NE
CZ-4 R/B 2.1 19:08:24 10° S 19:12:32 58° W 19:16:39 10° NNW
FALCON 9 R/B 3.9 18:53:49 10° WNW 19:12:39 37° N 19:17:18 18° ENE
Yuri Rocket 3.4 19:07:05 10° WNW 19:13:05 67° NNE 19:16:10 21° ESE
Cosmos 2034 Rocket 4.0 19:11:15 10° S 19:17:17 57° E 19:23:17 10° NNE
Meteor 2-11 Rocket 4.4 19:12:56 10° S 19:19:03 89° W 19:25:10 10° N
Cosmos 1602 3.7 19:16:14 10° S 19:20:08 86° W 19:24:01 10° N
H-2A R/B 3.5 19:26:05 19° NE 19:26:05 19° NE 19:28:28 10° NNE
ATLAS 2AS CENTAUR R/B 3.7 19:19:47 10° SSE 19:26:05 29° ESE 19:28:40 24° ENE
Cosmos 2285 Rocket 4.0 19:21:30 10° N 19:27:48 62° ENE 19:34:08 10° SSE
CZ-2D R/B 4.0 19:26:10 10° S 19:29:56 54° W 19:33:45 10° NNW
APEX 3.7 19:30:12 10° SSW 19:33:55 69° WNW 19:38:41 10° NNE
NOSS 2-2 (D) 3.6 19:31:03 10° SSW 19:35:04 60° WNW 19:37:30 19° N
IRS-1A Rocket 4.3 19:37:04 10° SSE 19:42:25 50° ENE 19:47:42 10° N
Palapa 6 Rocket 3.5 19:38:58 10° SW 19:42:48 42° SSE 19:43:10 41° SE
Hubble Space Telescope 3.1 19:44:27 10° NNW 19:46:08 13° N 19:46:08 13° N
Meteor 2-9 4.5 19:43:09 10° S 19:48:37 75° E 19:53:59 10° N
SL-4 R/B 4.3 19:47:52 10° WNW 19:51:32 25° WSW 19:54:59 10° S
SJ-11-01 4.1 19:46:57 10° SSE 19:51:37 73° ENE 19:56:16 10° N
HJ-1C 4.2 19:50:27 10° S 19:53:39 49° W 19:56:52 10° NNW
Cosmos 1833 4.0 19:49:48 10° NNW 19:55:31 77° ENE 19:58:37 28° SSE
Cosmos 44 3.1 19:52:16 10° NNW 19:56:53 85° WSW 19:57:58 53° SSE
USA 267 3.4 19:52:35 19° NNE 19:57:27 71° NW 20:03:57 10° SW
GPS 2-18 Rocket1 4.4 20:00:54 10° W 20:03:35 35° NW 20:03:35 35° NW
GPS 2-12 Rocket1 3.2 20:00:25 10° W 20:04:22 67° W 20:04:22 67° W
Okean 1-7 3.4 20:03:45 10° NNW 20:08:01 61° W 20:12:20 10° S
Delta 198 4.0 20:04:54 10° WNW 20:10:13 68° NNW 20:10:13 68° NNW
Meteor 1-5 Rocket 4.2 20:07:18 10° S 20:12:37 75° W 20:14:37 40° N
Centaur AC-112 3.6 20:09:51 10° WNW 20:13:44 85° NNE 20:15:40 55° ESE
Intelsat 5-1 Rocket 4.3 20:14:03 10° WNW 20:20:02 50° NNE 20:22:24 44° NE
CZ-3A R/B 2.8 20:02:59 10° WSW 20:24:56 77° NNW 20:25:36 71° NNE
COSMOS 2455 3.4 20:20:41 10° SSW 20:24:51 48° SSW 20:24:51 48° SSW
Ariane H10-3 4.1 20:24:52 10° SW 20:25:23 12° SW 20:25:23 12° SW
H-2A R/B 4.1 20:27:06 10° W 20:46:18 30° NNW 20:47:27 29° NNW
ATLAS 2AS CENTAUR R/B 4.0 21:09:43 10° SW 21:16:15 39° WNW 21:16:15 39° WNW
